Погода в Кызылорде

Погода в Кызылорде : погода сейчас, прогноз погоды и архив. Всё, что Вы хотите узнать о погоде в Кызылорде!

Хотите узнать прогноз погоды в Кызылорде? Тогда Вам сюда: Погода в Кызылорде

Поиск расширенной информации на нашем сайте:

Другие новости

Новости СМИ2

Главная страница сайта

Новости сайта

03.07.2017

Напоминаем, что на нашем специализированном сайте Метеоцентр.Азия вы можете получить высокодетализированные автоматические прогнозы погоды по пунктам России, СНГ и мира в авиационном формате (включающие направление и скорость ветра, видимость, явления погоды, количество и форму облачности, нижнюю и верхнюю границу облачности).


Погода в Кызылорде - сегодня

Время (UTC), дата Ветер
(°,м/с) 
Видим.   Явления Облачность Т
(°С)
Тd
(°С)
f(%) Тe
(°С)
Pmin
(гПа)
dP
(гПа)
Po
(мм)
O2
(г/м3)
Тmin Tmax R s Состояние
почвы
18 14.08.18 030 (СВ) н/о    8/0 средняя 
[Ac lent]
+28.2 +10.2 33 +30  1007.3  -0.2  744  270    +35.8       
21 14.08.18 350 (С) н/о    3/0 средняя 
[Ac lent]
+23.1 +9 41 +23  1007.1  -0.4  744  275           
00 15.08.18 360 (С) н/о    ясно 
+20.7 +9.3 48 +21  1007.3  0.1  744  277           
06 15.08.18 350 (С) 20000 м    3/0 средняя 
[Ac lent]
+31.4 +10 27 +33  1008.6  0.7  746  268  +19.5         
09 15.08.18 360 (С) 20000 м    ясно 
+36.1 +10.9 22 +39  1008  -0.3  745  263           
12 15.08.18 320 (СЗ) 20000 м    3/0 верхняя 
[Ci fib]
+36.4 +9.5 20 +37  1007.4  -0.6  745  263           
15 15.08.18 330 (СЗ) 20000 м    4/0 верхняя 
[Ci sp]
+30.6 +10.3 29 +32  1008.4  0.7  745  268    +38.3       
18 15.08.18 340 (С) н/о    ясно 
+28.4 +10.4 33 +30  1008.8  0.3  746  270    +38.3       
21 15.08.18 340 (С) н/о    ясно 
+24.7 +10.7 41 +27  1009.2  0.2  746  274           
00 16.08.18 350 (С) н/о    3/0 средняя 
[Ac lent]
+22.9 +10.6 46 +25  1009.9  0.5  746  275           
06 16.08.18 360 (С) 20000 м    ясно 
+32.5 +9.8 25 +33  1011.6  0.8  748  268  +21.4         
09 16.08.18 350 (С) 20000 м    ясно 
+34.2 +10.3 23 +36  1011.8  0.3  748  266           
15 16.08.18 330 (СЗ) 20000 м    ясно 
+27.5 +7.1 27 +28  1013  0.6  749  273    +35.8       
21 16.08.18 330 (СЗ) н/о    ясно 
+21.7 +7.7 40 +22  1014.1  749  278           
09 17.08.18 350 (С) 20000 м    ясно 
+29.7 +8 26 +30  1011.9  -1.8  748  270           
15 17.08.18 020 (С) 20000 м    ясно 
+28 +8.8 30 +28  1009.4  -0.7  746  271    +32.1       
21 17.08.18 020 (С) н/о    ясно 
+22.1 +8 40 +22  1007.9  -1.3  745  276           
09 18.08.18 040 (СВ) 20000 м    5/0 верхняя 
[Ci]
+34.1 +8.1 20 +34  1004.1  -1.8  742  265           
15 18.08.18 360 (С) 20000 м    8/0 средняя 
[Ac trans]
+28.4 +6.5 25 +28  1003.4  0.1  742  270    +36       
21 18.08.18 310 (СЗ) н/о    ясно 
+22.1 +8 40 +22  1002.9  -0.8  741  275           
09 19.08.18 270 (З) 20000 м    8/3 1500 м верхняя 
[Cu hum|Ci]
+35 +9.2 21 +35  1002.6  -0.8  741  263           
15 19.08.18 290 (З) 20000 м    9/0 средняя 
[Ac As]
+29.5 +12.1 34 +34  1002.3  0.1  741  267    +37.2       
21 19.08.18 тихо ()   н/о  {ливн. осадки}  6/6 600 м кучево-дожд. 
[Cb cap]
+26.1 +11.8 41 +30  1001.3  -1.6  740  270           
09 20.08.18 350 (С) 20000 м    10/10 600 м кучево-дожд. 
[Cb cap]
+24 +15.2 58 +33  1005.3  743  272           
21 20.08.18 260 (З) н/о    ясно 
+13.9 +11.3 84 +18  1015  1.1  750  285           
Время (UTC), дата Ветер
(°,м/с) 
Видим.   Явления Облачность Т
(°С)
Тd
(°С)
f(%) Тe
(°С)
Pmin
(гПа)
dP
(гПа)
Po
(мм)
O2
(г/м3)
Тmin Tmax R s Состояние
почвы

Для получения пояснительной информации подведите курсор к названию столбца.

ПОГОДА в Кызылорде - архив

Всё, что Вы хотите узнать о погоде в Кызылорде - удобно и подробно!

Выберите нужную дату (начиная с 1 января 2015* года) и нажмите кнопку "Найти".
Будут отображены архивные сводки погоды по пункту Кызылорда, начиная с указанной даты.


Отображать данные в формате CSV (для использования в таблицах Excel)


Внимание! Наш архив погоды предназначен исключительно для личного некоммерческого использования в познавательных целях. Если Вам необходимы официальные справки о состоянии погоды (для производственных, юридических, коммерческих и т.п. целей), обращайтесь в органы Росгидромета.

*Примечание: данная дата относится к архиву по метеостанциям СССР (Россия, СНГ, Балтия).
Архив по метеостанциям Зарубежной Европы и Азии (кроме Китая) хранится 10 дней, по другим регионам земного шара (Китай, Африка, Америка, Австралия, Океания) - 1 день.

Кызылорда - район местоположения метеостанции


Название, широта, долгота, высота метеостанции:
Кызылорда (город) 44.8°ш. 65.5°д. 130 м над ур. моря [Казахстан]

Дополнительная информация

В oтличие oт бoльшинства пoгoдных сайтoв мы публикуем пoдрoбную метеoинфoрмацию в детальнoм прoфессиoнальнoм фoрмате.

Характеристики температуры и влажнoсти вoздуха измеряются на высoте 2 м в тени вдали oт зданий и деревьев.
Скoрoсть ветра измеряется на высoте 10 м (на урoвне рoста челoвека скoрoсть ветра ниже в 1.5-2 раза). Если метеoстанция нахoдится в гoрoде или в лесу, тo скoрoсть ветра занижена на 2-4 м/с пo сравнению с oткрытым местoм. Скoрoсть ветра над акватoриями крупных рек и oзёр, а также на вершинах хoлмoв на 2-5 м/с выше, чем в oбычных услoвиях.
Атмoсфернoе давление в разных тoчках местнoсти мoжет значительнo oтличаться oт давления на метеoстанции, в зависимoсти oт услoвий рельефа (при пoдъёме на 10 м давление пoнижается примернo на 1 мм рт.ст.).